Regional Weather Roundup
Issued by NWS

Home | Current Version | Previous Version | Graphics & Text | Print | Product List | Glossary On
Versions: 1 2 3 4 5 6 7 8 9 10 11 12 13 14 15 16 17 18 19 20 21 22 23 24 25 26 27 28 29 30 31 32 33 34 35 36 37 38 39 40 41 42 43 44 45 46 47 48 49 50
174
ASUS45 KTFX 272010
RWRMT
MONTANA REGIONAL WEATHER ROUNDUP
NATIONAL WEATHER SERVICE GREAT FALLS MT
200 PM MDT THU APR 27 2017

NOTE: "FAIR" INDICATES FEW OR NO CLOUDS BELOW 12000 FEET WITH NO
SIGNIFICANT WEATHER AND/OR OBSTRUCTIONS TO VISIBILITY.

MTZ001>007-043-272100-
WEST OF THE DIVIDE

CITY           SKY/WX    TMP DP  RH WIND       PRES   REMARKS
KALISPELL      LGT RAIN  40  37  89 SE13      29.78R
MISSOULA       CLOUDY    46  28  49 NW14      29.83S
BUTTE          CLOUDY    43  24  47 N12G22    29.72F
MULLAN PASS    CLOUDY    28  27  96 VRB6      29.80S FOG     WCI  22
ANACONDA         N/A     41  21  45 W20G25    29.74R
DEER LODGE       N/A     43  25  49 NW15G25   29.77R
EUREKA           N/A     46  37  71 SE10      29.74S
HAMILTON         N/A     46  18  31 N7        29.81S
LIBBY            N/A     48  27  43 SW6       29.78R
PLAINS           N/A     48  28  46 W12       29.86S
$$

MTZ008-052>055-272100-
SOUTHWEST MONTANA

CITY           SKY/WX    TMP DP  RH WIND       PRES   REMARKS
BOZEMAN        CLOUDY    41  33  73 S6        29.71
DILLON         CLOUDY    44  27  51 NW17      29.71S
W YELLOWSTONE  CLOUDY    36  21  55 NW6       29.68F WCI  31
THREE FORKS      N/A     47  -1  13 NW2       29.73S
TWIN BRIDGES     N/A     45  25  45 N13       29.74F
$$

MTZ009-010-012-014-046-048-049-054-272100-
EAST SLOPES AND CENTRAL MONTANA

CITY           SKY/WX    TMP DP  RH WIND       PRES   REMARKS
CUT BANK       CLOUDY    37  35  92 N13       29.73R WCI  29
GREAT FALLS    LGT RAIN  42  37  82 W15       29.70R
MALMSTROM AFB  DRIZZLE   41  36  84 W12       29.71R
HELENA         CLOUDY    50  26  39 W24G32    29.70S
AUGUSTA        LGT RAIN  40  39  98 N15       29.71R
CHOTEAU          N/A     41  39  93 N14       29.74R
RAYNESFORD     LGT RAIN  37  35  92 W20       29.70R WCI  26
$$

MTZ011-013-016-021-045-047-050-051-272100-
NORTH CENTRAL MONTANA

CITY           SKY/WX    TMP DP  RH WIND       PRES   REMARKS
HAVRE          CLOUDY    43  38  82 NE8       29.69R
LEWISTOWN      LGT RAIN  39  35  86 NW15G21   29.66S WCI  31
N BAR RANCH    CLOUDY    46  37  71 NW17      29.66R
CHINOOK          N/A     45  39  81 NE6       29.69R
FORT BENTON      N/A     46  39  76 MISG      29.69S
GEYSER         PTSUNNY   44  34  69 NW14G28   29.67R
JUDITH GAP     PTSUNNY   44  36  73 N28G37    29.63R
STANFORD       PTSUNNY   42  36  80 NW24G31   29.67R
$$

MTZ017>020-022>027-061-062-272100-
NORTHEAST MONTANA

CITY           SKY/WX    TMP DP  RH WIND       PRES   REMARKS
GLASGOW        CLOUDY    54  26  34 SE12      29.68S
JORDAN           N/A     53  28  38 S9G20     29.64S
SIDNEY         SUNNY     51  23  33 E13       29.71S
WOLF POINT     MOSUNNY   54  24  31 E16G23    29.70F
MALTA          CLOUDY    46  37  71 E5        29.67F
PLENTYWOOD       N/A     48  16  27 E6G16     29.74S
POPLAR           N/A     48  21  34 E13       29.71S
SCOBEY           N/A     51  20  29 E8        29.72
$$

MTZ028>42-056>058-272100-
SOUTHCENTRAL AND SOUTHEAST MONTANA

CITY           SKY/WX    TMP DP  RH WIND       PRES   REMARKS
BAKER          SUNNY     49  26  41 E16G22    29.66S
BILLINGS       LGT RAIN  40  38  93 N8        29.64R
LIVINGSTON     LGT RAIN  41  34  76 SW13      29.68S
MILES CITY     PTSUNNY   54  29  38 SE8       29.62S
BIG TIMBER     SUNNY     45  34  65 W24G32    29.68S
EKALAKA          N/A     48  29  48 E10       29.65
LAUREL           N/A     44  34  68 NW13      29.67R
ROUNDUP          N/A     48  37  65 N12       29.59S
$$

REGIONAL REPORTS...DAKOTAS

CITY           SKY/WX    TMP DP  RH WIND       PRES   REMARKS
WILLISTON      SUNNY     51  18  27 SE13G20   29.73F
MINOT          SUNNY     50  15  24 N12       29.73F
DICKINSON      SUNNY     47  22  37 E16       29.67F
BEACH            N/A     48  21  34 NE12G20   29.71S
TIOGA            N/A     46   9  21 E13       29.75S
WATFORD CITY     N/A     48  18  29 E9G16     29.72S
BISMARCK       SUNNY     51  26  37 NE10      29.71F
GRAND FORKS    MOSUNNY   44  31  60 N20G25    29.67F
FARGO          PTSUNNY   35  25  66 N16       29.69S WCI  25
BUFFALO SD       N/A     48  27  44 E12G17    29.59F
RAPID CITY     CLOUDY    47  34  60 E13       29.62F
$$

REGIONAL REPORTS...WYOMING/IDAHO/WASHINGTON

CITY           SKY/WX    TMP DP  RH WIND       PRES   REMARKS
GILLETTE       MIX PCPN  37  35  92 CALM      29.57S
SHERIDAN       LGT SNOW  34  32  92 NW7       29.61R FOG     WCI  28
BUFFALO WY     SNOW      35  32  88 N13G23    29.59R VSB 1/4 WCI  26
CODY           PTSUNNY   46  34  62 N23G30    29.58F
YELLOWSTONE LA   N/A     31  23  72 NW8G18    29.66R WCI  23
IDAHO FALLS    PTSUNNY   41  33  73 SW20      29.74S
SALMON         CLOUDY    45  25  45 N14       29.79S
BOISE          PTSUNNY   48  27  44 NW17      29.95F
SPOKANE        LGT RAIN  47  30  51 S12G29    29.86S
$$

REGIONAL REPORTS...ALBERTA

CITY           SKY/WX    TMP DP  RH WIND       PRES   REMARKS
EDMONTON       CLOUDY    39  32  75 E8        29.80S
CALGARY        MOSUNNY   45  32  61 E8        29.71R
LETHBRIDGE     CLOUDY    41  36  81 VRB3      29.74R
MEDICINE HAT   PTSUNNY   50  30  46 NW12G21   29.72S
WATERTON GATE    N/A     39  34  81 SW5         N/A
CARDSTON         N/A     41  36  81 N2          N/A
MILK RIVER       N/A     41  36  81 NW8         N/A
$$

REGIONAL REPORTS...SASKATCHEWAN

CITY           SKY/WX    TMP DP  RH WIND       PRES   REMARKS
SWIFT CURRENT  CLOUDY    48  25  40 SE9       29.70R
REGINA         MOSUNNY   48  12  23 E8G20     29.77F
SASKATOON      CLOUDY    46  19  34 E14G21    29.82S
CYPRESS HILLS    N/A     36  32  87 N7          N/A  WCI  30
VAL MARIE        N/A     48  28  46 S17         N/A
ASSINIBOIA       N/A     41  36  81 E9          N/A
$$




USA.gov is the U.S. government's official web portal to all federal, state and local government web resources and services.